KG0HG Weather Reports


Display with metric or nautical units.
time (UTC)temp
F
wind
direction
speed
MPH
gust
MPH
rain 1hr
in
rain 24hr
in
rain mn
in
humidity
%
barometer
mb
20260504045245 60 108 1.0 2.0 0.00 0.00 0.00 82 1008.0
20260504044743 60 93 2.0 2.0 0.00 0.00 0.00 83 1007.9
20260504044240 60 97 0.0 2.0 0.00 0.00 0.00 84 1008.1
20260504043737 60 106 0.0 0.0 0.00 0.00 0.00 84 1008.0
20260504043234 60 120 0.0 0.0 0.00 0.00 0.00 84 1008.2
20260504042732 60 120 0.0 0.0 0.00 0.00 0.00 83 1008.1
20260504042228 61 120 0.0 0.0 0.00 0.00 0.00 80 1008.0
20260504041724 61 120 0.0 0.0 0.00 0.00 0.00 80 1008.0
20260504041220 61 120 0.0 0.0 0.00 0.00 0.00 79 1007.8
20260504040717 61 120 0.0 0.0 0.00 0.00 0.00 77 1008.0
20260504040214 60 120 0.0 0.0 0.00 0.00 0.00 81 1007.8
20260504035710 61 120 0.0 0.0 0.00 0.00 0.00 81 1007.8
20260504035208 61 120 0.0 0.0 0.00 0.00 0.00 80 1008.0
20260504034705 61 120 0.0 0.0 0.00 0.00 0.00 81 1008.0
20260504034202 61 126 0.0 0.0 0.00 0.00 0.00 81 1008.0
20260504033700 61 126 0.0 0.0 0.00 0.00 0.00 81 1007.9
20260504033157 61 126 0.0 0.0 0.00 0.00 0.00 80 1008.1
20260504032653 61 127 1.0 1.0 0.00 0.00 0.00 79 1008.1
20260504032151 61 134 0.0 0.0 0.00 0.00 0.00 78 1007.9
20260504031648 62 136 2.0 3.0 0.00 0.00 0.00 76 1008.0
20260504031144 62 111 0.0 0.0 0.00 0.00 0.00 75 1008.0
20260504030640 63 111 0.0 1.0 0.00 0.00 0.00 74 1008.2
20260504030137 63 110 0.0 1.0 0.00 0.00 0.00 72 1008.1
20260504025634 63 110 0.0 0.0 0.00 0.00 0.00 71 1008.2
20260504025131 64 110 0.0 0.0 0.00 0.00 0.00 70 1008.4
20260504024628 64 110 0.0 0.0 0.00 0.00 0.00 68 1008.3
20260504024125 64 110 0.0 0.0 0.00 0.00 0.00 68 1008.0
20260504023621 65 110 0.0 0.0 0.00 0.00 0.00 67 1007.9
20260504023117 65 110 0.0 2.0 0.00 0.00 0.00 66 1008.1
20260504022614 66 110 0.0 0.0 0.00 0.00 0.00 64 1008.0
20260504022110 66 110 0.0 0.0 0.00 0.00 0.00 64 1008.0
20260504021608 66 110 0.0 0.0 0.00 0.00 0.00 64 1008.1
20260504021104 67 110 0.0 1.0 0.00 0.00 0.00 62 1008.1
20260504020602 68 110 0.0 0.0 0.00 0.00 0.00 58 1008.2
20260504020057 68 110 0.0 1.0 0.00 0.00 0.00 57 1008.3
20260504015554 69 110 0.0 1.0 0.00 0.00 0.00 58 1008.4
20260504015050 69 58 0.0 0.0 0.00 0.00 0.00 53 1008.2
20260504014546 69 58 0.0 0.0 0.00 0.00 0.00 53 1007.8
20260504014044 69 58 0.0 1.0 0.00 0.00 0.00 57 1008.1
20260504013541 69 58 0.0 0.0 0.00 0.00 0.00 57 1008.3
20260504013038 70 58 0.0 1.0 0.00 0.00 0.00 56 1008.1
20260504012536 71 56 0.0 0.0 0.00 0.00 0.00 50 1008.0
20260504012033 72 55 0.0 1.0 0.00 0.00 0.00 49 1007.8
20260504011530 72 55 1.0 1.0 0.00 0.00 0.00 49 1008.2
20260504011026 73 55 0.0 0.0 0.00 0.00 0.00 48 1008.0
20260504010522 73 55 0.0 0.0 0.00 0.00 0.00 48 1007.9
20260504010018 74 55 0.0 0.0 0.00 0.00 0.00 46 1007.8
20260504005515 74 55 0.0 0.0 0.00 0.00 0.00 44 1007.5
20260504005012 75 55 0.0 0.0 0.00 0.00 0.00 43 1007.9
20260504004510 75 55 0.0 0.0 0.00 0.00 0.00 43 1007.9
20260504004007 77 55 0.0 0.0 0.00 0.00 0.00 42 1007.8
20260504003503 77 47 0.0 0.0 0.00 0.00 0.00 40 1007.9
20260504003000 78 40 0.0 0.0 0.00 0.00 0.00 39 1007.9
20260504002457 78 37 1.0 1.0 0.00 0.00 0.00 38 1008.0
20260504001954 78 303 3.0 3.0 0.00 0.00 0.00 37 1008.0
20260504001451 79 43 1.0 1.0 0.00 0.00 0.00 37 1008.0
20260504000948 79 18 2.0 5.0 0.00 0.00 0.00 36 1008.0
20260504000445 79 340 3.0 3.0 0.00 0.00 0.00 38 1008.0
20260503235942 79 11 2.0 3.0 0.00 0.00 0.00 36 1007.9
20260503235440 80 42 0.0 1.0 0.00 0.00 0.00 39 1008.0
20260503234937 80 3 2.0 3.0 0.00 0.00 0.00 35 1008.1
20260503234435 81 47 1.0 1.0 0.00 0.00 0.00 37 1008.2
20260503233933 81 16 1.0 3.0 0.00 0.00 0.00 34 1007.9
20260503233429 81 38 1.0 3.0 0.00 0.00 0.00 36 1008.1
20260503232925 81 36 0.0 3.0 0.00 0.00 0.00 35 1008.1
20260503232422 81 349 1.0 2.0 0.00 0.00 0.00 33 1008.2
20260503231920 82 335 3.0 3.0 0.00 0.00 0.00 33 1008.0
20260503231417 82 286 3.0 6.0 0.00 0.00 0.00 33 1008.1
20260503230914 82 319 3.0 6.0 0.00 0.00 0.00 32 1008.0
20260503230410 82 87 1.0 1.0 0.00 0.00 0.00 33 1008.1
20260503225908 83 306 3.0 6.0 0.00 0.00 0.00 31 1007.9
20260503225404 83 30 1.0 5.0 0.00 0.00 0.00 31 1008.1
20260503224900 83 352 4.0 7.0 0.00 0.00 0.00 32 1008.1
20260503224357 83 118 1.0 2.0 0.00 0.00 0.00 34 1008.0
20260503223855 82 282 3.0 5.0 0.00 0.00 0.00 33 1008.1
20260503223353 82 125 2.0 7.0 0.00 0.00 0.00 31 1008.3
20260503222848 82 188 4.0 6.0 0.00 0.00 0.00 33 1008.3
20260503222347 82 129 1.0 2.0 0.00 0.00 0.00 33 1008.5
20260503221844 82 183 3.0 5.0 0.00 0.00 0.00 32 1008.3
20260503221343 82 211 2.0 6.0 0.00 0.00 0.00 32 1008.4
20260503220838 83 292 3.0 7.0 0.00 0.00 0.00 32 1008.4
20260503220336 82 343 2.0 3.0 0.00 0.00 0.00 32 1008.5
20260503215832 82 303 5.0 7.0 0.00 0.00 0.00 31 1008.6
20260503215330 82 165 3.0 13.0 0.00 0.00 0.00 32 1008.7
20260503214827 82 137 1.0 7.0 0.00 0.00 0.00 31 1008.7
20260503214324 82 143 0.0 5.0 0.00 0.00 0.00 33 1008.8
20260503213822 82 58 0.0 3.0 0.00 0.00 0.00 32 1008.6
20260503213319 82 306 6.0 10.0 0.00 0.00 0.00 31 1008.9
20260503212816 82 67 2.0 5.0 0.00 0.00 0.00 34 1008.9
20260503212314 82 173 3.0 5.0 0.00 0.00 0.00 36 1009.1
20260503211811 81 18 1.0 8.0 0.00 0.00 0.00 34 1008.9
20260503211308 81 154 1.0 6.0 0.00 0.00 0.00 36 1009.0
20260503210807 81 311 0.0 3.0 0.00 0.00 0.00 36 1009.3
20260503210306 81 218 5.0 7.0 0.00 0.00 0.00 37 1009.3
20260503205800 81 355 2.0 10.0 0.00 0.00 0.00 37 1009.3
20260503205257 81 148 3.0 5.0 0.00 0.00 0.00 37 1009.1
20260503204753 80 211 4.0 10.0 0.00 0.00 0.00 37 1009.7
20260503204251 80 144 3.0 7.0 0.00 0.00 0.00 38 1009.4
20260503203749 80 167 4.0 6.0 0.00 0.00 0.00 38 1009.6
20260503203246 80 195 4.0 11.0 0.00 0.00 0.00 37 1009.7
20260503202743 79 192 3.0 9.0 0.00 0.00 0.00 38 1009.6
20260503202241 80 120 4.0 10.0 0.00 0.00 0.00 37 1010.1
20260503201738 80 138 2.0 7.0 0.00 0.00 0.00 38 1010.2
20260503201236 79 143 3.0 6.0 0.00 0.00 0.00 37 1010.2
20260503200732 78 267 4.0 7.0 0.00 0.00 0.00 38 1010.3
20260503200228 78 304 2.0 7.0 0.00 0.00 0.00 37 1010.2
20260503195725 79 246 5.0 8.0 0.00 0.00 0.00 39 1010.5
20260503195222 79 193 2.0 5.0 0.00 0.00 0.00 38 1010.3
20260503194720 78 122 2.0 9.0 0.00 0.00 0.00 39 1010.3
20260503194215 78 178 4.0 6.0 0.00 0.00 0.00 39 1010.5
20260503193712 77 165 4.0 5.0 0.00 0.00 0.00 39 1010.6
20260503193208 79 164 5.0 8.0 0.00 0.00 0.00 39 1010.7
20260503192703 78 323 3.0 7.0 0.00 0.00 0.00 39 1010.8
20260503192159 77 197 2.0 6.0 0.00 0.00 0.00 39 1010.8
20260503191655 76 137 2.0 5.0 0.00 0.00 0.00 39 1010.7
20260503191153 76 65 1.0 6.0 0.00 0.00 0.00 39 1011.1
20260503190650 76 176 4.0 7.0 0.00 0.00 0.00 41 1011.1
20260503190147 76 244 5.0 7.0 0.00 0.00 0.00 39 1011.1
20260503185643 77 329 6.0 8.0 0.00 0.00 0.00 39 1011.0
20260503185138 76 174 1.0 7.0 0.00 0.00 0.00 41 1011.2
20260503184634 75 149 2.0 8.0 0.00 0.00 0.00 41 1011.3
20260503184130 76 278 5.0 8.0 0.00 0.00 0.00 39 1011.0
20260503183627 75 243 3.0 11.0 0.00 0.00 0.00 40 1011.3
20260503183124 75 44 4.0 7.0 0.00 0.00 0.00 41 1011.4
20260503182622 75 180 7.0 8.0 0.00 0.00 0.00 41 1011.4
20260503182121 75 190 4.0 6.0 0.00 0.00 0.00 41 1011.5
20260503181617 74 262 5.0 7.0 0.00 0.00 0.00 40 1011.7
20260503181114 74 290 6.0 11.0 0.00 0.00 0.00 41 1012.1
20260503180611 75 219 4.0 9.0 0.00 0.00 0.00 40 1011.6
20260503180109 74 157 2.0 10.0 0.00 0.00 0.00 44 1011.6
20260503175605 73 191 5.0 10.0 0.00 0.00 0.00 42 1011.9
20260503175103 73 126 6.0 9.0 0.00 0.00 0.00 42 1012.1
20260503174559 73 277 5.0 13.0 0.00 0.00 0.00 42 1012.0
20260503174056 74 177 8.0 10.0 0.00 0.00 0.00 42 1012.1
20260503173551 73 191 3.0 8.0 0.00 0.00 0.00 42 1012.3
20260503173048 73 118 3.0 6.0 0.00 0.00 0.00 44 1012.1
20260503172545 73 241 5.0 8.0 0.00 0.00 0.00 43 1012.2
20260503172042 72 238 3.0 6.0 0.00 0.00 0.00 45 1012.4
20260503171538 74 347 4.0 5.0 0.00 0.00 0.00 45 1012.6
20260503171036 73 173 3.0 8.0 0.00 0.00 0.00 43 1012.3
20260503170532 73 165 3.0 7.0 0.00 0.00 0.00 45 1012.6
20260503150925 64 100 4.0 10.0 0.00 0.00 0.00 50 1013.9
20260503150421 64 148 9.0 11.0 0.00 0.00 0.00 49 1013.5
20260503131314 55 181 2.0 6.0 0.00 0.00 0.00 55 1015.0
20260503130812 54 156 3.0 9.0 0.00 0.00 0.00 55 1015.0
20260503130309 54 184 3.0 7.0 0.00 0.00 0.00 55 1015.0
20260503110703 51 143 1.0 2.0 0.00 0.00 0.00 58 1015.0
20260503110200 51 143 2.0 3.0 0.00 0.00 0.00 58 1014.9
20260503100126 48 80 0.0 1.0 0.00 0.00 0.00 66 1015.7
20260503081516 45 68 0.0 0.0 0.00 0.00 0.00 71 1016.4
20260503081013 45 68 0.0 0.0 0.00 0.00 0.00 72 1016.5
20260503080509 45 68 0.0 0.0 0.00 0.00 0.00 73 1016.5
20260503072443 45 68 0.0 0.0 0.00 0.00 0.00 75 1016.9
20260503071940 45 68 0.0 0.0 0.00 0.00 0.00 76 1016.8
20260503071437 45 68 0.0 0.0 0.00 0.00 0.00 76 1016.9
20260503070933 45 68 0.0 0.0 0.00 0.00 0.00 77 1016.9
20260503070430 45 68 0.0 0.0 0.00 0.00 0.00 77 1017.0
20260503054843 44 66 0.0 0.0 0.00 0.00 0.00 83 1017.5
20260503054339 44 66 0.0 0.0 0.00 0.00 0.00 83 1017.8
20260503053837 44 66 0.0 0.0 0.00 0.00 0.00 83 1017.6
20260503053336 44 66 0.0 0.0 0.00 0.00 0.00 84 1017.7
20260503052831 44 66 0.0 0.0 0.00 0.00 0.00 84 1017.9
20260503052329 44 66 0.0 0.0 0.00 0.00 0.00 84 1017.7
20260503051825 44 66 0.0 0.0 0.00 0.00 0.00 84 1017.9
20260503051321 44 66 0.0 0.0 0.00 0.00 0.00 84 1018.1
20260503050818 44 66 0.0 0.0 0.00 0.00 0.00 84 1018.1
20260503050314 44 66 0.0 0.0 0.00 0.00 0.00 84 1018.0
20260503045812 44 66 0.0 0.0 0.00 0.00 0.00 84 1018.1